Voltar ao catálogo

COSMOS 1828

AtivoMilitarPO
NORAD 17583·PAYLOAD·🇷🇺 Russia

Lançado Mar 13, 1987 de Plesetsk Cosmodrome

Loading…

Próximas Passagens (próximas 24 horas)

TLE

AtualizadoSource: Space-Track

Época: Sep 14, 2026, 20:38 UTC

1 17583U 87026B   26257.85979939  .00000013  00000-0  14383-4 0  9995
2 17583  82.5627 108.2650 0018127 225.4930 164.7742 12.66270579825890

Acompanhe COSMOS 1828 em tempo real com AllMySat

Download on the App Store